Theta_e
312 311 313 314 316 318 319 320 321 321 321 322 322 323 324 325 325 325 327 328 329 329 330 329 328 328 328 327 327 328 327 327 327 327 328 328 327 327 327 327 328 327 327 327 326 324 326 327 328 327 326 325 323 324 327 326 323 321 318 316 319 319 321 318 315 314 316 319 316 316 319 319 317 315 315 316 317 315 314 314 313 314 316 315 314
304 305 304 309 313 314 317 319 318 319 320 321 321 322 324 324 324 325 326 326 328 330 330 330 330 330 329 328 329 329 327 326 327 328 328 329 328 328 327 327 328 328 327 327 327 327 326 326 326 328 327 326 325 324 322 320 322 318 317 318 317 319 319 317 316 317 315 314 314 315 316 319 318 315 313 317 318 316 314 314 313 314 314 314 312
299 301 303 304 308 311 314 316 318 320 321 321 322 323 323 323 324 325 326 325 327 329 330 330 332 332 332 331 330 329 331 332 332 331 330 330 329 329 329 329 328 328 327 327 328 328 328 328 327 328 326 325 324 323 323 322 322 321 319 320 319 315 317 314 316 318 317 312 315 314 311 311 314 316 312 316 316 316 314 315 312 313 313 312 310
296 298 299 300 302 306 309 313 316 319 320 321 321 321 322 322 324 324 325 325 326 327 326 331 331 332 333 332 332 332 329 329 331 331 330 329 328 329 330 329 329 328 328 327 327 328 328 328 329 328 327 326 327 326 323 323 322 321 320 318 318 318 314 314 314 315 316 314 312 311 310 308 307 310 309 314 312 313 312 313 312 311 311 312 311
297 297 297 298 298 302 307 311 314 316 317 319 320 321 322 323 323 324 324 324 326 325 326 328 327 327 327 324 324 324 321 324 325 325 327 327 328 328 328 329 329 329 330 330 329 328 328 329 327 327 328 324 324 324 324 324 323 323 321 319 316 318 317 316 314 314 314 315 316 311 311 307 306 309 309 311 313 313 312 311 311 310 310 309 309
297 297 298 297 298 299 302 307 310 314 316 318 321 321 322 323 323 323 324 324 324 325 326 326 326 327 324 323 322 322 323 322 322 323 323 324 326 327 329 329 329 329 330 330 328 328 329 329 329 328 326 323 322 324 324 323 322 321 320 320 317 318 319 316 315 312 312 313 315 317 315 311 309 308 308 305 312 311 312 312 309 310 310 308 306
295 295 296 295 296 297 299 303 308 311 314 317 319 321 322 322 323 323 324 324 324 324 324 324 326 326 326 326 326 325 324 326 326 327 327 327 327 327 328 328 330 330 329 329 329 329 329 328 328 326 325 325 323 323 322 322 322 322 320 319 320 318 318 316 315 313 312 313 313 313 312 311 313 308 305 306 301 307 308 306 307 310 308 305 304
296 296 296 296 296 296 297 300 304 308 312 315 317 318 320 321 322 322 323 322 324 324 323 324 325 325 325 326 326 326 326 327 327 326 328 327 326 327 327 327 326 327 329 328 329 328 327 327 327 326 324 324 322 322 322 320 318 316 317 319 317 318 318 317 315 313 313 310 312 313 311 310 310 311 310 305 302 299 300 304 307 306 302 302 303
295 296 296 296 296 296 296 297 301 305 309 312 314 317 319 320 321 321 322 322 322 323 323 323 324 325 325 326 325 325 327 327 324 323 325 324 326 324 325 325 325 325 326 327 327 327 324 325 325 325 324 322 318 320 319 319 319 317 315 316 317 316 316 315 314 312 310 310 309 309 309 308 306 306 306 305 301 298 298 299 299 300 299 299 301
292 293 294 295 295 295 296 296 297 301 306 310 311 314 316 318 319 319 320 322 322 322 322 323 324 323 324 324 324 324 324 321 319 319 322 321 324 321 322 323 323 323 324 325 325 325 324 323 323 323 322 319 316 318 318 317 316 317 317 316 316 314 314 313 312 311 310 311 311 309 307 305 303 304 304 301 300 301 297 296 297 294 292 294 297
290 291 291 292 292 292 293 294 296 297 301 306 309 312 314 316 318 318 320 322 321 322 321 322 323 324 324 324 324 324 323 321 316 317 319 318 321 319 317 320 320 321 320 320 321 322 322 320 322 321 320 316 316 316 315 316 316 315 314 314 313 312 311 311 310 310 310 309 308 308 306 305 302 300 299 299 298 295 294 293 293 293 292 292 297
288 288 290 291 291 291 292 294 295 296 298 302 306 309 312 314 316 317 318 319 320 321 321 322 323 323 324 324 324 324 324 322 320 319 318 317 320 316 316 317 317 317 317 318 316 317 318 319 319 319 317 317 316 316 316 315 313 312 312 312 310 310 309 308 308 308 307 306 305 306 305 304 302 301 300 299 298 296 294 292 292 292 292 294 296
289 290 291 292 292 292 292 293 294 296 298 301 304 307 310 312 314 315 316 317 319 320 320 321 321 322 323 323 324 324 323 322 322 322 320 320 320 318 314 315 313 312 312 315 315 316 315 315 315 314 314 315 314 314 313 313 312 311 309 308 308 307 307 308 307 305 305 304 302 302 302 301 299 299 299 297 297 295 294 291 292 292 290 291 293
290 291 292 293 293 293 293 293 295 296 297 299 302 304 306 309 311 313 315 316 317 318 319 320 321 322 323 323 324 323 322 322 322 323 321 321 320 318 316 316 313 315 313 315 315 314 315 315 314 312 311 310 309 308 307 307 309 308 307 306 304 303 304 304 302 301 300 300 299 298 297 297 297 297 297 296 294 293 292 291 290 290 291 289 291
291 291 293 293 294 292 293 293 294 294 295 296 298 301 302 306 308 310 312 312 314 316 318 319 320 320 321 322 323 323 322 321 322 322 321 320 320 319 318 317 315 315 315 315 311 312 312 310 309 308 307 306 305 304 303 304 304 304 303 301 299 298 299 299 298 297 296 296 296 296 295 295 294 295 295 294 295 293 292 291 290 287 288 289 288
292 292 293 292 291 290 290 290 292 293 294 293 294 297 299 303 305 307 311 311 311 312 316 319 319 320 320 320 321 321 320 321 320 319 319 320 319 319 317 317 317 316 313 310 309 309 308 306 306 306 305 304 303 302 301 301 301 301 299 299 296 296 295 294 294 293 293 293 293 293 292 290 290 291 292 293 293 293 292 292 291 290 287 285 287
293 293 292 291 289 289 288 289 289 289 290 292 295 295 298 300 301 303 305 306 308 311 315 317 318 318 318 320 320 320 319 319 319 318 317 318 318 318 317 316 315 312 308 308 307 306 305 305 304 303 303 301 300 300 299 298 299 298 297 296 294 293 293 292 291 290 290 291 291 291 290 289 288 289 289 290 291 291 292 292 293 290 289 287 285
291 291 290 289 289 289 289 289 290 292 291 289 290 293 295 295 298 301 302 304 305 308 311 314 316 316 317 317 318 319 319 319 318 317 316 315 315 315 313 310 309 308 306 305 305 303 302 300 302 300 300 298 296 296 295 295 295 294 294 293 291 290 288 287 288 288 289 289 288 288 289 288 288 289 288 287 288 289 289 290 289 290 290 287 287
290 291 292 292 292 292 291 291 292 291 291 292 293 296 295 295 293 297 300 302 305 306 308 311 314 315 316 316 317 317 317 317 317 316 314 314 313 312 310 310 306 304 303 303 303 301 300 299 299 296 295 294 294 293 292 292 292 290 289 288 287 288 287 287 286 286 286 288 288 287 288 288 288 288 288 288 288 288 287 288 289 289 288 288 286
290 291 291 292 292 292 292 292 292 293 293 293 293 297 296 296 296 297 299 301 303 304 306 307 310 312 313 314 315 316 315 316 315 314 313 313 312 310 308 305 304 302 303 302 300 299 298 296 294 294 292 291 291 290 290 289 289 288 288 288 287 287 287 286 286 286 286 287 287 287 287 287 287 287 287 287 287 287 287 287 287 287 287 287 286
290 290 290 291 291 291 291 290 290 288 289 293 295 298 299 299 299 299 300 301 302 304 305 306 308 310 310 312 312 313 313 315 314 314 313 312 311 308 307 305 301 301 301 300 298 297 296 295 294 293 292 291 290 288 288 288 288 287 287 287 287 287 287 287 287 286 286 287 287 286 286 286 286 286 286 286 286 286 286 286 286 286 285 285 285
288 289 289 290 289 288 288 289 288 286 291 294 296 298 300 300 301 301 302 302 303 304 305 306 307 309 309 310 311 311 312 312 311 310 310 308 306 304 302 300 300 299 300 299 298 295 294 294 294 293 292 291 290 288 288 288 286 286 286 286 287 287 286 286 287 286 286 286 286 285 285 285 286 285 285 285 285 285 285 284 285 284 284 284 285
287 288 289 289 289 288 288 288 288 288 290 293 294 298 300 301 301 302 302 303 303 304 305 306 306 307 307 307 307 307 307 307 307 305 304 302 301 299 299 300 297 295 295 297 295 294 294 293 292 291 290 289 289 288 287 287 287 286 286 286 287 286 286 286 286 285 285 285 285 284 284 285 285 284 284 284 284 284 284 284 283 284 283 283 284
289 287 286 287 287 287 288 290 291 290 290 293 296 298 299 300 301 302 301 302 303 304 304 304 305 304 303 302 302 301 303 303 303 301 300 298 298 297 297 297 295 294 293 292 293 292 292 292 291 289 289 288 288 287 287 287 287 287 286 286 286 286 286 285 285 285 285 284 284 283 283 284 284 283 282 283 283 284 283 283 283 283 283 282 283
288 288 288 287 287 289 291 291 291 290 288 288 293 298 298 300 299 300 301 301 301 301 301 300 299 299 298 298 298 299 300 299 298 297 296 295 294 294 293 293 292 292 292 292 291 291 291 291 290 289 288 287 287 287 287 286 286 286 286 286 285 285 285 285 285 284 284 284 283 283 283 283 283 282 282 282 282 282 282 282 282 282 282 282 282
288 287 287 289 289 288 287 288 289 288 289 290 293 295 297 297 298 297 298 297 297 297 298 298 297 297 297 296 296 297 297 296 295 294 293 293 292 292 292 292 292 292 291 291 290 290 290 289 288 288 287 287 287 286 286 286 285 285 285 285 285 285 284 284 284 284 284 283 283 282 282 282 282 282 281 281 282 281 282 281 281 281 281 281 281
289 289 288 286 287 288 289 288 289 288 288 288 289 293 295 296 296 295 296 297 296 297 296 297 296 296 296 295 294 294 295 293 292 292 292 292 292 291 291 292 292 291 291 290 289 288 287 287 287 286 286 286 286 286 285 285 285 285 285 284 284 284 283 283 283 283 283 283 282 282 282 282 282 282 282 281 281 281 281 281 281 281 281 281 281
287 287 288 289 289 288 288 288 288 288 288 287 287 291 295 296 296 295 295 295 296 296 295 295 295 295 294 293 292 292 292 293 292 292 292 292 291 291 291 290 290 290 289 288 287 287 286 286 285 285 285 285 285 285 285 285 285 284 284 284 283 283 282 282 282 282 282 282 282 282 282 282 282 282 282 282 282 281 281 280 281 281 281 281 280
288 290 289 289 290 289 289 288 288 288 288 288 287 288 289 293 295 295 294 294 294 295 295 294 293 293 292 291 291 291 291 290 290 290 290 290 290 289 289 288 288 288 287 287 286 285 284 284 285 285 285 285 285 285 285 284 284 284 284 283 283 282 282 281 281 281 281 281 281 281 282 282 282 282 282 282 282 282 281 280 281 281 281 281 280
290 290 290 290 291 290 289 288 288 288 288 288 288 288 290 293 294 293 293 293 293 293 294 294 293 292 291 291 290 290 290 290 290 290 289 289 288 288 287 287 286 286 285 285 284 284 284 284 284 284 284 285 284 285 284 285 285 283 283 283 282 282 281 281 280 280 280 280 280 281 281 281 281 281 281 281 282 282 282 282 282 282 282 281 280
290 291 291 291 291 290 289 289 289 289 289 289 289 289 289 291 294 293 293 293 293 292 292 292 293 291 291 290 290 289 290 289 290 289 288 288 287 287 286 285 285 284 284 284 284 284 284 284 284 284 284 285 285 285 286 287 286 285 283 282 282 281 281 281 280 280 279 279 280 280 280 280 280 279 280 281 281 282 282 282 283 283 283 281 280
291 291 291 291 291 290 290 290 290 289 288 288 289 288 288 290 293 293 293 292 293 293 293 292 291 291 290 290 290 290 289 289 288 288 287 287 286 286 285 285 284 283 283 283 283 283 283 284 284 285 285 285 285 286 288 287 286 285 283 282 282 281 281 280 280 280 279 279 279 279 279 279 279 279 279 279 279 280 281 282 283 282 282 281 282
292 292 291 290 290 290 291 291 289 289 289 289 289 289 289 290 291 293 293 292 293 293 293 292 291 290 290 290 290 289 289 288 288 287 287 286 285 285 284 284 283 283 283 282 282 282 283 283 284 285 285 286 286 288 287 287 286 285 284 282 281 281 280 280 280 279 279 279 279 278 278 278 278 279 279 279 279 280 281 282 282 281 280 280 281
291 290 290 290 289 290 290 290 290 289 289 289 289 290 290 289 290 291 292 292 293 293 293 293 291 290 290 289 289 288 288 288 287 286 286 285 285 285 284 283 282 282 282 281 281 282 282 283 284 285 285 286 286 287 287 287 286 285 284 282 281 280 280 280 279 279 279 278 278 278 278 278 278 278 278 279 280 281 281 281 280 280 279 279 280
291 289 288 289 289 289 288 288 288 289 288 287 288 288 288 288 289 290 291 292 293 293 292 292 291 290 289 289 288 288 287 287 286 285 285 285 284 283 282 282 282 282 281 281 281 281 281 282 283 284 285 285 285 287 287 286 286 285 284 282 280 280 280 279 279 279 278 278 278 278 278 277 278 278 279 281 282 282 281 279 278 278 278 279 278
290 289 289 289 287 288 289 290 288 287 287 288 288 288 288 288 288 289 290 291 292 292 292 291 290 289 289 288 288 288 287 286 285 284 284 284 283 282 281 281 281 281 280 280 280 281 281 281 282 283 284 284 285 286 286 286 285 285 283 280 280 279 279 279 278 278 278 278 278 278 277 277 277 278 279 282 283 282 280 278 277 277 277 277 277
289 288 289 288 288 288 288 287 286 288 288 288 287 287 288 287 287 288 289 290 290 291 291 291 290 289 289 288 288 287 286 285 284 284 283 283 282 280 280 280 280 280 279 279 279 279 280 281 281 282 283 284 285 285 286 285 285 284 281 279 279 279 279 278 278 278 278 278 278 278 278 277 278 278 280 283 283 281 278 277 277 276 275 274 275
289 288 287 286 285 285 286 288 287 287 288 287 287 287 287 287 286 286 287 288 289 290 291 290 290 289 288 288 287 287 286 285 284 284 283 282 281 280 280 280 280 279 278 278 278 279 279 280 281 281 282 283 283 284 285 285 284 283 280 278 279 279 278 278 277 278 278 278 278 278 278 278 278 279 281 282 282 280 278 277 276 274 273 274 276
287 287 287 286 286 286 286 286 286 287 286 286 286 286 287 287 286 286 286 287 288 289 289 289 289 288 288 287 287 286 286 285 284 284 283 281 280 279 279 279 279 279 278 278 278 278 277 278 279 280 280 282 282 283 285 284 283 282 280 279 279 278 277 277 277 277 277 277 277 278 278 279 279 281 282 281 281 280 278 277 275 274 273 274 276
285 284 285 285 285 286 286 286 286 287 285 286 286 287 286 286 286 285 286 286 287 287 287 288 287 287 286 286 286 285 285 284 284 283 282 281 279 278 278 278 278 278 277 277 277 277 276 276 277 278 279 281 282 282 283 284 283 282 281 279 279 277 276 276 277 277 276 276 276 277 278 280 281 281 281 280 280 280 278 276 275 274 274 273 276
284 285 284 284 284 285 286 286 285 285 284 285 286 286 286 286 285 285 285 287 287 286 285 285 285 284 284 285 284 284 284 283 283 281 280 278 278 278 277 277 277 276 276 276 275 275 275 275 276 276 277 278 279 281 282 283 283 282 282 280 278 278 278 277 276 276 276 275 276 276 277 279 280 280 279 279 279 279 278 276 276 275 275 276 275
282 282 282 284 283 284 285 284 283 283 284 285 286 286 286 285 284 285 286 286 285 284 284 284 283 283 282 282 281 281 282 281 279 279 278 277 276 277 277 277 277 276 275 274 274 274 274 274 274 274 275 276 278 280 282 283 283 283 282 281 278 278 278 277 276 275 275 275 275 276 277 279 280 279 278 278 278 278 277 275 276 276 276 275 271
284 285 283 283 284 284 284 284 282 282 283 284 285 285 284 284 285 286 284 284 283 283 283 283 282 281 281 280 280 279 280 279 278 278 278 277 276 276 276 276 276 275 275 274 273 273 273 273 273 273 274 275 278 279 282 282 283 283 283 282 281 279 280 277 276 275 275 275 276 276 277 279 278 277 278 278 277 276 275 276 276 275 274 273 269
281 282 282 280 282 281 282 281 280 281 281 283 285 285 284 284 285 282 282 281 281 281 281 280 280 280 279 279 278 278 279 278 278 278 277 276 276 276 276 276 276 275 275 274 273 273 273 272 272 273 274 276 277 278 281 282 282 283 283 282 282 281 280 277 277 276 276 276 276 277 278 278 277 277 277 276 276 275 275 275 274 274 272 269 267
282 282 280 280 283 282 280 280 280 279 281 282 282 284 282 283 281 279 280 280 279 279 279 279 278 278 278 277 277 277 277 277 277 277 277 276 275 275 275 275 275 275 275 274 273 273 273 273 273 272 273 274 276 277 278 280 282 282 283 283 282 282 281 280 276 276 276 276 278 278 278 277 276 276 275 274 272 273 273 273 272 271 268 265 265
278 279 278 278 278 277 279 280 280 278 279 279 279 280 283 281 278 279 279 279 278 278 278 277 276 276 276 275 276 275 275 276 276 277 277 277 276 276 276 275 275 275 275 274 273 273 273 273 273 273 273 274 274 275 276 278 280 281 281 282 282 281 280 279 277 276 277 278 278 277 277 276 275 274 271 270 269 270 270 270 269 268 265 264 264
279 278 275 276 276 278 278 277 279 278 276 276 277 277 278 276 277 278 278 278 278 278 277 276 276 275 274 275 276 275 275 274 274 275 275 276 276 276 276 275 275 275 275 274 274 273 274 274 274 274 273 273 273 274 274 276 278 279 279 280 280 279 280 278 276 277 277 275 275 274 273 273 273 273 272 271 269 268 266 266 265 264 264 264 264
274 273 273 274 275 277 276 275 277 275 274 275 276 276 274 273 275 276 276 277 277 277 277 275 275 274 274 274 275 274 274 274 274 274 275 274 275 275 276 275 275 275 275 274 274 274 274 274 275 274 273 272 272 273 273 274 275 276 277 277 277 277 276 275 274 273 271 271 271 272 271 268 267 266 266 264 264 264 264 264 264 263 263 263 265
275 273 273 276 274 274 274 273 274 274 273 274 274 273 271 273 275 275 276 277 277 275 275 273 273 273 273 273 274 274 274 274 274 273 274 275 275 275 276 276 275 276 277 277 276 276 276 277 276 274 272 271 271 272 273 277 276 278 276 275 275 275 274 273 274 273 268 267 266 265 265 265 265 264 264 264 263 262 262 262 261 261 262 263 262
272 271 271 271 272 273 273 274 274 272 272 272 272 271 271 272 273 273 275 276 275 274 273 272 272 273 272 273 273 273 273 273 273 273 273 272 274 277 276 275 275 277 279 280 280 277 277 278 277 276 275 273 272 273 277 278 278 279 279 278 277 277 276 274 275 274 269 265 265 264 264 264 263 263 262 262 262 261 261 261 261 263 263 261 262
272 273 272 272 271 270 271 272 272 270 270 270 270 269 270 271 272 273 274 274 274 274 273 272 272 272 273 273 273 273 272 272 272 273 272 273 272 272 279 279 278 277 278 279 280 280 280 280 278 276 276 278 277 277 279 279 279 280 280 279 279 278 278 277 278 270 266 264 263 263 263 262 262 262 262 261 262 261 261 260 260 261 261 262 262
Wind_Speed
8 4 7 8 9 9 9 8 9 9 9 9 10 11 12 13 11 12 11 10 10 10 9 10 10 9 8 11 9 7 7 7 7 7 7 7 7 6 6 6 6 7 7 7 7 7 6 6 7 7 7 6 6 7 6 5 3 4 3 3 3 3 4 1 1 1 2 4 0 2 4 2 2 3 1 1 2 1 1 2 2 3 3 4 4
8 8 7 6 8 8 8 9 9 11 12 12 13 14 14 12 13 13 9 10 11 11 10 9 9 8 7 7 6 7 7 7 6 6 8 8 8 7 7 6 7 7 8 8 8 8 8 6 5 6 6 6 7 6 4 3 3 3 3 2 2 3 3 1 3 1 2 1 4 5 1 2 2 2 3 5 7 3 2 2 2 3 4 4 3
9 10 7 9 10 10 9 9 10 14 14 15 14 12 12 12 12 13 11 11 11 11 11 11 10 9 9 7 8 6 7 8 9 9 9 9 9 8 7 7 8 7 7 8 7 7 8 7 5 5 5 5 4 4 5 5 5 5 4 4 3 2 3 1 3 3 2 1 2 3 3 4 2 1 1 8 4 3 2 3 3 4 6 4 3
14 13 12 10 10 9 8 10 12 12 12 11 11 14 12 13 13 13 12 11 11 12 12 11 11 10 10 9 9 9 7 7 8 7 7 8 9 8 8 8 9 9 8 7 6 7 7 7 6 6 7 7 6 6 6 7 6 5 4 5 3 2 2 1 1 3 3 0 2 1 3 2 4 1 6 3 1 2 0 2 2 5 5 5 3
13 11 9 8 9 12 14 14 10 11 12 13 14 14 12 17 15 14 12 13 12 12 13 11 8 8 7 3 3 3 1 5 6 7 8 8 7 8 8 8 8 9 9 10 8 6 6 6 6 7 7 6 5 6 6 7 6 5 6 5 6 5 3 2 1 0 3 1 1 1 1 1 1 3 8 2 0 6 1 1 3 3 4 4 4
12 13 10 9 11 9 8 10 11 12 13 14 14 15 15 13 13 13 12 12 12 13 13 11 11 11 9 9 8 8 9 7 10 10 7 7 8 5 8 9 9 8 7 8 9 8 8 8 8 7 6 5 6 7 6 4 5 5 6 6 6 5 3 4 2 2 2 2 1 0 1 1 2 2 2 4 5 3 5 7 7 3 4 9 7
10 11 8 7 10 9 11 12 14 13 15 12 11 12 12 12 12 14 13 12 12 12 13 12 12 11 13 14 12 12 11 9 8 7 8 8 7 8 8 8 9 10 8 7 6 7 8 7 8 7 6 5 5 6 5 6 5 5 5 5 5 5 5 4 5 3 3 3 2 2 4 4 4 2 2 3 6 4 4 5 7 8 9 10 10
11 12 11 11 10 11 14 14 12 16 12 8 10 9 12 14 14 14 12 11 11 11 13 13 13 13 13 13 12 12 12 12 10 9 8 8 8 9 8 7 7 6 7 7 7 6 7 7 7 6 6 6 6 6 5 4 4 2 4 5 4 5 6 6 7 5 4 3 2 3 4 3 3 3 3 2 3 5 6 3 1 6 8 6 8
8 10 11 11 11 11 10 8 9 8 7 10 11 11 11 11 11 10 11 11 10 12 12 13 13 13 13 12 12 11 11 10 6 7 8 8 10 7 7 7 7 7 6 5 6 6 6 7 7 6 6 5 5 4 4 5 6 7 5 5 5 5 4 4 5 5 4 4 4 3 3 3 2 2 4 4 1 2 5 4 6 4 6 4 3
5 9 9 8 8 8 8 8 7 10 8 8 7 7 9 9 11 12 13 11 11 12 12 13 14 12 12 13 14 11 9 6 6 7 8 7 9 8 7 7 6 6 6 6 6 7 7 6 6 6 6 6 5 6 6 6 6 6 6 5 6 7 6 6 6 5 4 5 4 4 2 2 3 2 2 2 2 4 4 5 4 6 6 5 6
6 6 7 8 6 7 5 9 10 6 6 7 8 9 9 10 12 13 15 11 11 12 13 15 13 13 13 13 14 14 12 10 7 7 7 7 8 8 8 7 6 7 6 6 7 6 6 6 6 6 7 7 6 7 7 6 6 7 8 8 7 8 7 6 6 5 5 5 5 4 3 3 4 3 3 3 3 1 2 5 3 3 6 8 2
6 6 8 7 8 7 6 9 8 7 6 8 8 8 9 10 11 13 12 12 11 12 12 13 12 13 13 13 13 13 12 11 12 11 10 11 9 8 7 6 6 5 5 6 4 4 5 5 6 7 7 8 7 5 7 8 7 5 6 7 7 6 7 6 6 6 6 5 5 5 4 4 4 4 4 3 3 2 2 4 4 3 4 4 5
6 7 7 7 7 7 6 8 6 7 9 9 9 9 8 8 10 12 13 11 11 11 13 13 12 13 13 12 12 11 11 12 12 12 11 10 9 9 8 7 5 5 5 6 6 6 6 6 6 6 6 6 7 6 5 6 8 6 6 7 7 6 6 6 5 5 5 5 5 4 5 5 5 4 4 3 2 1 2 2 2 2 4 4 2
7 7 8 8 8 7 7 7 7 7 8 8 8 8 7 8 8 11 12 9 9 10 11 12 13 12 12 12 11 10 11 11 11 11 10 10 9 10 11 9 9 10 9 8 8 7 6 7 8 6 6 6 7 7 6 5 6 6 6 6 6 5 6 7 7 7 6 7 6 6 5 5 5 4 3 3 3 2 1 1 3 3 4 4 2
7 8 9 8 8 7 7 6 6 6 6 6 6 6 5 8 8 10 10 8 9 11 10 12 11 11 11 11 11 9 10 10 10 10 10 10 9 9 9 8 9 8 10 7 8 8 7 7 8 8 7 7 6 7 6 5 5 5 6 6 6 5 7 7 7 8 7 8 8 7 6 5 4 3 4 3 3 2 2 1 1 5 2 3 1
7 7 8 7 8 6 6 6 6 5 6 5 7 6 6 7 6 8 9 7 8 8 9 10 11 9 10 11 11 10 9 9 8 7 8 10 10 10 10 10 9 9 7 8 8 8 8 8 7 7 7 7 7 7 7 6 7 7 6 7 7 5 8 9 8 9 8 9 7 7 6 5 4 4 4 4 3 3 2 2 1 2 3 6 2
7 7 7 7 5 5 6 5 4 4 4 6 6 6 7 7 7 7 7 5 7 9 10 10 9 9 10 10 10 9 10 11 10 10 10 10 10 9 9 9 8 8 8 8 9 8 7 8 8 7 7 8 8 7 7 7 7 7 7 8 8 7 8 8 7 8 7 7 6 6 4 4 4 4 4 4 4 3 2 2 2 1 2 0 4
6 7 6 7 6 5 5 4 4 4 4 3 4 3 3 4 6 8 7 8 7 7 8 8 9 9 9 10 10 10 10 10 9 10 9 9 8 7 6 7 8 8 9 9 9 9 8 7 8 7 7 9 9 8 8 8 8 7 8 8 8 8 8 6 6 7 7 6 5 5 4 4 4 3 4 4 4 4 3 2 2 2 2 2 1
6 7 6 6 6 6 5 5 3 3 3 3 2 2 2 3 3 4 7 7 6 6 6 6 7 7 8 9 10 9 8 8 8 9 9 9 9 8 9 9 8 8 8 9 9 10 9 7 8 7 8 10 8 8 9 9 10 9 8 8 6 5 6 6 5 5 5 6 6 6 4 5 3 4 3 3 3 3 3 3 3 2 2 2 2
6 6 6 5 5 5 4 3 3 2 2 1 2 1 2 2 3 4 4 4 5 7 7 7 7 6 7 6 7 8 8 9 9 9 9 9 10 10 9 8 10 9 9 10 9 10 10 10 7 8 9 8 9 8 9 9 8 7 6 6 5 7 8 7 5 4 4 6 8 8 5 5 4 4 4 3 3 2 2 2 2 3 2 2 2
7 6 6 5 4 4 4 3 3 2 1 1 1 2 2 2 3 3 4 5 6 7 7 7 7 7 7 8 8 7 8 8 9 10 11 10 10 10 10 10 9 9 10 10 10 9 9 11 10 9 11 10 10 9 8 8 7 7 5 6 6 8 9 6 7 7 5 7 7 7 6 4 3 5 4 3 3 3 3 3 3 2 3 2 1
7 7 5 5 4 4 3 3 2 2 2 2 2 3 3 4 4 4 4 5 5 6 5 5 5 5 7 7 7 7 8 7 8 8 8 8 8 8 9 9 10 10 11 11 11 10 8 10 11 9 10 9 9 8 8 8 8 8 8 6 7 9 9 8 7 7 6 5 6 7 6 5 3 5 4 4 3 3 3 4 3 3 3 3 2
7 6 5 5 4 5 4 3 4 4 3 2 2 3 4 4 4 4 4 5 5 5 4 4 4 5 5 4 4 5 5 7 8 7 7 7 7 6 7 10 9 8 5 9 10 11 11 11 10 10 10 9 9 9 8 9 8 9 9 7 7 9 9 9 8 7 7 6 6 6 5 4 3 5 4 3 3 3 3 4 4 3 3 3 2
5 4 3 4 4 4 3 4 5 5 4 6 5 3 4 3 4 4 5 5 4 5 4 5 4 4 4 3 4 3 5 5 6 5 7 6 7 7 6 7 8 8 9 7 7 9 10 11 11 10 10 10 9 9 8 8 9 9 10 9 8 7 8 8 8 8 7 6 6 6 5 5 5 5 4 3 3 3 4 4 4 3 3 3 3
4 4 3 3 3 4 6 6 6 5 4 4 5 5 4 4 3 4 4 4 4 4 4 3 4 4 4 4 4 4 5 5 5 5 6 6 7 7 6 9 9 7 8 10 8 8 10 10 10 11 10 10 10 11 10 9 7 7 8 9 8 7 7 7 7 7 6 6 5 5 5 5 5 5 4 3 3 5 4 3 4 3 3 3 3
3 3 3 5 5 4 5 6 6 6 6 5 5 4 4 3 4 3 3 3 2 3 3 4 4 4 4 4 4 4 5 5 6 6 7 7 7 7 9 7 8 11 8 8 10 8 10 10 10 10 9 9 10 10 10 10 8 8 8 7 7 7 7 7 7 6 6 5 6 5 5 4 4 4 4 4 4 4 4 4 4 4 3 3 4
5 4 5 4 5 8 8 7 7 5 5 5 4 4 4 3 3 2 3 3 4 4 3 4 4 4 5 5 5 4 6 6 6 7 7 7 8 8 7 10 10 10 11 11 9 9 7 10 10 9 10 11 10 9 9 8 8 7 8 9 8 7 7 6 6 6 6 5 5 5 5 4 4 4 5 4 4 4 4 4 4 4 4 4 4
4 5 5 6 7 6 7 8 7 7 6 5 5 5 4 4 5 4 3 3 4 4 3 4 4 5 5 5 5 5 6 7 7 7 7 7 8 8 8 7 8 9 9 10 12 11 9 9 9 9 8 9 9 8 8 7 7 7 8 8 8 8 8 8 7 6 6 5 5 5 4 4 4 4 4 4 4 4 3 4 4 4 4 4 4
4 6 4 5 7 7 7 7 8 6 7 6 5 5 4 4 4 4 4 4 3 4 4 3 3 4 5 4 4 4 4 4 6 6 6 7 7 7 7 8 8 8 7 9 9 11 12 10 8 8 8 8 9 8 7 8 8 7 7 9 8 8 9 9 8 7 6 5 5 4 4 5 5 6 7 6 6 5 3 4 4 4 4 5 5
6 6 6 6 8 7 8 7 7 7 8 7 7 7 8 8 7 5 5 5 5 4 4 6 5 4 4 5 5 5 7 6 7 7 7 7 8 9 9 9 9 8 9 9 10 9 11 12 11 8 8 7 7 6 8 10 9 9 8 7 7 7 8 8 9 8 6 5 5 5 5 7 7 6 7 7 7 7 6 4 3 3 4 4 5
7 7 8 7 7 8 7 7 8 9 9 8 8 7 7 8 7 7 7 6 6 5 4 5 7 5 5 6 6 6 7 8 8 7 8 8 9 8 9 9 9 9 10 10 10 11 10 9 10 10 8 6 6 6 13 13 14 13 9 8 8 7 7 7 7 7 7 6 5 5 5 5 5 4 5 6 5 5 5 5 4 4 5 4 4
10 9 8 9 10 9 8 10 9 6 6 7 7 7 7 9 7 7 7 6 7 7 7 6 4 6 7 7 7 7 6 7 7 8 8 8 8 8 9 10 10 10 9 9 10 10 10 9 8 8 7 7 7 11 15 14 14 14 10 7 7 7 7 7 7 7 6 6 6 5 4 3 3 3 3 2 0 1 0 3 4 5 5 6 5
10 11 9 7 8 9 10 9 6 7 8 9 9 8 10 9 9 8 7 7 7 7 7 7 7 7 7 7 7 8 7 7 7 8 7 7 8 8 9 9 9 9 9 10 10 10 8 7 9 9 8 7 8 12 14 15 14 14 14 10 6 7 8 7 7 6 6 6 5 5 4 3 3 4 2 2 2 1 3 1 5 4 4 5 5
10 9 7 7 5 7 7 7 6 6 8 8 9 10 8 6 7 6 9 8 9 8 8 9 8 8 8 7 7 7 8 8 7 8 8 7 7 8 8 7 8 8 9 8 7 10 9 9 9 9 8 8 9 12 14 15 14 15 14 10 6 8 7 7 7 6 5 5 5 5 4 4 3 2 2 2 2 2 1 3 3 3 3 4 5
11 7 7 8 8 4 3 3 6 8 6 5 6 5 4 6 7 8 8 9 8 8 7 7 8 8 7 7 7 7 8 7 7 7 7 7 7 7 8 7 8 9 9 10 10 10 8 9 9 8 8 8 7 14 15 15 15 15 15 10 7 7 7 6 6 6 5 5 5 4 4 4 3 1 2 1 1 2 2 2 3 3 3 4 4
9 8 9 6 4 4 4 5 4 4 5 6 6 5 6 5 5 7 7 7 7 8 9 8 8 8 8 8 8 7 7 6 7 6 7 8 7 8 9 7 7 6 5 6 5 6 9 9 8 9 10 8 9 15 15 15 16 15 15 7 7 7 7 7 6 5 5 4 4 4 3 3 2 1 4 3 3 2 2 2 3 3 3 3 4
9 7 8 3 3 3 4 3 4 6 6 7 5 7 7 6 7 7 8 8 8 10 10 9 8 8 9 9 9 9 9 8 7 8 8 8 8 8 7 6 8 7 8 8 8 7 7 9 10 9 10 9 10 13 15 16 16 16 11 5 6 6 6 7 6 6 5 4 4 4 3 2 2 1 5 3 4 4 2 2 2 3 2 2 4
9 3 2 2 3 3 3 4 5 5 4 4 6 7 6 6 6 6 7 8 9 12 8 7 7 7 8 8 9 9 9 9 9 10 9 7 6 5 7 7 10 10 9 8 8 8 6 7 10 10 10 11 9 13 16 15 16 15 10 7 6 7 7 6 6 5 4 4 4 5 3 2 2 3 3 4 4 3 2 2 2 3 3 4 3
5 5 6 5 5 4 3 2 2 4 3 5 6 7 7 7 6 7 7 9 11 6 5 8 8 7 7 8 9 8 9 10 11 10 10 11 10 9 7 6 6 7 8 7 7 8 7 5 5 8 10 10 10 12 16 15 16 15 10 6 7 7 8 6 6 6 4 3 4 4 4 4 3 2 2 3 3 2 1 1 1 2 3 3 4
3 4 5 3 1 2 2 3 5 5 4 7 7 7 7 7 6 6 8 9 7 7 7 5 5 7 7 8 7 8 9 10 11 9 9 9 8 8 9 8 7 6 8 7 7 7 10 7 6 7 8 8 10 9 12 16 15 15 14 7 5 8 7 8 6 6 6 4 3 2 3 4 2 1 1 2 2 2 1 1 1 1 3 4 5
3 2 1 1 3 4 5 5 4 5 6 7 7 8 7 7 7 7 11 10 7 6 6 7 7 8 8 8 6 8 9 7 7 8 7 6 6 8 8 8 8 7 7 8 8 7 8 7 5 5 6 6 7 9 11 16 15 15 16 12 6 6 7 7 7 7 5 5 4 3 2 4 3 1 1 0 1 1 2 2 1 2 4 5 7
0 0 0 1 2 2 1 1 2 5 6 7 7 8 7 7 7 10 10 4 5 6 6 7 8 7 7 7 8 7 7 8 8 9 9 7 5 7 8 8 7 8 10 9 8 7 7 6 4 4 5 5 5 9 10 15 16 16 15 14 6 6 7 8 8 6 5 5 5 4 3 4 3 3 2 1 1 2 3 2 2 5 7 9 6
2 2 1 2 3 2 1 1 1 3 5 5 6 6 6 5 9 8 3 5 5 5 6 6 6 7 7 8 8 9 9 8 9 10 12 11 9 10 9 9 10 10 11 11 10 9 9 7 6 4 3 4 7 7 12 12 16 16 16 14 12 8 13 7 7 8 8 6 5 4 5 5 4 4 3 2 2 3 3 2 5 7 9 10 7
1 0 1 2 3 2 1 1 1 3 4 5 7 6 6 7 9 3 5 5 6 5 5 6 6 6 6 6 7 7 7 7 9 10 10 11 11 10 10 10 10 11 11 10 7 8 8 8 9 7 5 7 7 7 9 13 13 18 16 15 15 15 15 7 6 6 6 6 6 6 5 6 5 4 3 3 2 3 3 4 6 8 9 8 3
4 2 0 1 2 2 3 2 1 3 3 4 4 6 5 7 3 5 5 7 6 6 6 6 6 6 6 5 5 6 7 7 8 10 11 10 10 11 11 8 10 10 10 11 10 9 11 8 7 8 7 7 7 7 7 11 16 16 17 17 17 17 15 13 7 6 6 6 7 9 9 7 6 5 4 4 4 4 5 5 7 8 7 2 2
3 2 2 2 3 3 3 2 0 0 1 1 3 3 5 3 2 5 6 7 7 7 6 6 5 6 6 6 7 5 5 5 7 7 8 9 11 11 11 10 10 10 10 10 10 9 8 8 7 6 8 7 8 7 8 8 11 12 12 16 16 16 15 14 9 8 10 11 11 9 9 8 6 5 3 2 2 2 6 7 7 7 2 1 1
2 1 3 3 3 3 2 1 0 0 0 1 2 3 3 2 4 4 5 7 7 7 6 5 6 5 4 6 7 6 5 4 4 4 4 5 6 7 7 9 9 10 10 8 9 10 10 9 8 7 7 7 7 9 8 9 8 8 8 10 11 10 14 14 10 8 9 7 8 7 5 6 5 6 5 4 4 5 4 3 2 2 1 1 1
2 2 3 3 3 3 1 1 1 2 1 1 2 3 2 2 3 3 4 7 7 7 7 6 6 5 5 5 6 7 7 6 6 6 7 6 6 7 9 11 13 13 12 11 11 12 13 13 11 8 9 7 8 9 10 10 11 11 10 8 8 8 9 9 9 8 7 5 5 6 6 3 3 3 2 2 2 2 1 1 1 1 1 2 3
4 2 2 3 4 3 2 2 1 1 0 1 1 1 1 3 4 4 5 6 7 5 5 5 5 5 5 5 6 7 7 7 7 6 6 7 9 9 9 7 5 4 6 10 13 13 12 10 10 12 12 8 8 11 13 14 13 17 13 12 10 10 9 8 9 13 9 7 6 6 4 4 3 3 1 1 0 0 1 1 1 2 2 1 1
3 3 4 3 3 2 2 0 1 1 1 0 1 1 1 1 2 4 4 5 5 6 5 5 5 5 5 5 5 5 6 6 7 7 6 4 4 6 6 5 6 5 5 4 4 7 6 7 9 10 14 18 18 18 16 21 21 22 21 18 13 16 14 10 15 17 10 8 7 7 4 5 4 3 3 3 3 2 2 1 1 2 1 1 2
4 5 3 3 2 2 2 1 0 1 1 1 1 1 1 1 1 1 3 4 5 5 5 5 5 5 6 6 5 5 5 5 5 5 5 6 5 3 8 9 6 5 4 4 4 3 6 9 7 8 10 6 1 8 20 21 21 23 21 20 18 19 20 19 21 14 8 7 9 7 5 4 4 4 4 4 3 3 2 2 1 1 2 2 2
Wind_Direction
248 232 219 214 211 207 206 198 203 201 203 201 207 210 208 208 198 208 204 198 201 201 196 195 198 200 206 207 207 197 198 198 205 206 208 210 201 199 196 198 193 194 196 188 197 198 202 216 197 193 186 181 199 218 218 219 206 190 179 157 215 286 304 123 100 138 311 296 157 253 293 245 304 16 13 329 335 9 343 354 2 344 352 347 353
267 253 236 225 219 209 201 202 196 201 211 204 208 210 211 207 207 213 196 198 204 201 198 203 204 198 196 204 194 196 191 192 203 205 210 207 202 196 196 190 192 191 194 193 197 195 204 216 218 213 188 192 199 212 215 216 193 167 151 188 198 233 262 154 161 161 298 253 315 327 253 288 353 51 41 5 357 5 10 8 11 354 338 341 343
254 245 228 222 219 214 203 204 207 211 212 208 211 212 213 213 216 215 204 197 204 201 200 208 206 204 204 201 192 198 201 201 206 207 203 207 207 196 188 190 193 195 191 192 192 199 206 207 201 202 199 199 193 205 213 216 212 213 189 209 230 204 244 225 201 186 249 203 260 295 345 353 340 6 325 357 323 14 4 18 356 344 338 340 345
250 240 226 219 217 210 206 210 213 211 214 208 206 212 212 216 216 211 206 202 203 203 204 208 203 202 208 206 198 201 201 203 213 208 200 205 213 204 206 196 191 191 188 189 197 202 206 207 207 199 206 196 201 208 206 232 224 217 210 215 185 211 204 241 246 195 177 170 334 24 303 10 326 115 327 310 153 323 100 353 0 346 332 336 340
243 251 232 215 212 213 206 210 205 210 211 208 206 208 209 212 210 206 204 203 204 200 200 198 187 194 203 183 182 187 86 188 203 212 203 198 199 195 201 198 205 203 186 185 189 200 201 203 206 214 200 187 195 216 221 225 216 212 202 197 181 185 191 169 53 108 186 211 151 213 291 320 211 319 336 288 297 346 4 171 346 351 338 328 333
236 242 233 214 219 225 222 215 207 213 213 212 208 211 210 211 207 208 209 206 205 200 194 187 193 192 184 185 193 197 207 189 203 207 188 194 199 189 195 194 198 207 206 194 182 189 212 212 212 208 197 198 204 217 218 198 200 202 202 191 192 197 179 162 143 54 18 44 33 26 321 278 324 350 1 315 325 355 330 343 345 19 354 343 342
241 253 251 224 225 220 223 214 213 213 221 210 211 214 211 213 210 209 208 207 203 198 189 189 195 197 196 199 201 202 209 214 210 197 192 192 182 188 194 199 199 197 198 196 203 205 222 217 219 215 196 198 197 202 197 198 197 197 171 186 192 171 163 168 166 136 99 48 40 49 62 77 109 82 314 318 321 329 342 348 340 353 1 345 334
234 238 240 234 231 215 223 217 212 216 216 200 215 209 209 211 208 210 210 209 203 196 191 192 195 196 199 204 205 209 210 216 199 198 189 175 188 191 188 193 197 203 198 193 193 206 214 217 207 200 193 191 185 196 194 172 144 113 145 167 145 156 175 174 150 145 153 134 57 80 79 84 96 150 186 180 225 289 312 344 340 357 336 325 315
225 242 243 234 233 235 241 237 231 240 222 209 209 207 210 213 214 213 213 209 206 197 195 196 198 196 199 201 207 213 211 215 192 185 183 177 188 186 187 189 193 194 196 202 202 207 208 210 198 195 192 181 173 168 159 158 153 140 137 136 147 143 140 126 129 144 148 149 149 119 119 92 66 87 115 71 130 221 280 290 306 332 305 266 265
234 239 251 250 239 238 232 235 234 221 216 219 217 204 207 205 210 209 215 207 202 199 198 200 201 199 203 203 206 206 204 197 161 179 186 177 188 184 187 188 191 199 202 214 218 208 201 196 192 179 169 152 152 148 144 141 138 136 138 137 144 128 119 130 132 136 141 139 131 133 138 120 101 130 103 64 244 218 247 279 306 316 325 310 316
245 255 262 261 260 255 239 233 236 234 218 212 215 208 205 204 207 209 214 206 201 200 196 202 201 203 207 205 205 206 199 189 168 184 183 181 190 185 171 190 189 198 195 210 215 193 189 180 175 165 148 144 141 147 150 141 139 137 134 131 130 125 126 124 119 130 128 117 112 112 133 165 168 170 171 171 168 192 266 268 275 272 286 300 272
272 276 276 282 293 271 256 247 239 233 219 218 216 209 208 209 206 212 214 207 202 201 200 205 202 206 210 208 207 207 196 193 190 193 186 186 189 174 180 176 188 187 194 189 194 184 168 167 164 153 150 153 153 153 149 138 129 128 134 131 126 120 120 119 128 126 115 102 95 111 126 138 131 144 153 160 168 187 206 271 296 306 284 246 296
266 266 270 277 266 270 253 247 238 228 219 215 213 208 212 213 210 213 218 207 205 200 203 204 204 207 206 207 209 205 201 196 197 199 192 192 186 177 157 181 172 169 192 181 174 170 154 143 146 146 145 147 139 136 132 126 129 131 131 122 128 135 136 130 122 118 123 129 122 93 106 118 124 125 135 133 126 143 199 288 275 269 266 291 286
265 261 262 264 261 256 247 247 239 233 229 221 212 205 205 206 209 213 222 204 206 204 207 207 210 208 205 207 207 200 203 197 200 200 193 194 186 181 178 181 176 187 181 191 171 167 161 156 146 140 140 136 129 119 110 103 126 134 136 129 121 116 110 109 115 108 101 110 123 125 123 122 118 110 109 125 136 146 148 230 297 260 228 269 244
244 251 251 251 250 242 243 237 238 239 234 231 222 213 197 206 203 211 217 207 199 206 206 211 212 210 208 209 207 201 201 198 201 199 188 189 187 184 187 180 179 185 183 179 149 155 150 140 140 140 137 128 122 116 117 122 124 121 118 116 104 110 112 114 116 122 126 132 132 131 127 116 112 117 128 127 137 134 143 166 339 334 322 201 322
257 254 265 256 246 249 246 238 230 224 232 225 216 203 198 210 206 213 216 208 201 203 210 211 213 209 209 207 207 203 201 199 198 190 188 188 186 185 187 183 187 175 160 149 153 147 151 140 137 134 132 125 115 125 130 132 136 130 123 117 110 115 119 120 125 127 128 130 127 125 116 112 113 119 122 123 127 130 136 141 136 101 10 331 336
282 265 267 274 279 265 250 240 249 224 215 217 214 201 199 196 200 213 219 220 209 209 210 209 210 207 210 208 205 202 198 197 196 191 185 186 185 188 185 188 171 157 153 157 145 142 142 143 137 136 130 121 119 121 127 130 132 128 127 124 123 124 119 125 129 126 127 127 121 118 110 117 121 119 112 117 124 129 135 136 113 121 106 118 335
265 269 263 259 259 262 270 255 236 238 237 275 273 260 256 232 207 208 211 217 217 214 217 212 209 210 207 207 206 203 200 200 194 188 180 177 186 183 167 154 165 158 154 154 144 141 134 136 130 127 123 98 109 124 122 126 126 122 124 122 129 128 119 114 116 123 127 124 119 114 119 109 117 111 110 121 124 130 131 122 113 101 137 114 200
282 280 275 260 246 235 229 245 251 252 257 268 296 251 235 236 238 227 219 218 219 220 222 224 218 212 208 206 204 202 200 195 190 182 175 180 179 174 173 169 144 144 143 145 147 143 142 139 132 128 117 105 123 122 126 128 129 124 125 127 134 133 116 110 119 125 130 130 124 111 108 100 109 106 108 109 112 119 115 122 111 109 88 108 156
290 278 259 254 263 266 271 282 296 301 294 289 284 249 249 258 244 237 244 232 226 221 217 220 218 215 210 205 207 202 194 189 185 179 181 185 181 174 165 155 163 154 155 152 146 146 144 137 135 135 116 122 128 129 133 133 128 127 132 132 137 127 114 116 122 116 128 127 115 104 97 100 102 97 88 78 77 67 76 93 92 92 93 84 139
290 274 272 260 259 285 297 315 301 302 261 250 232 226 215 193 229 234 233 235 233 230 218 221 210 213 205 202 198 193 193 191 186 185 184 186 178 172 169 166 149 159 151 151 146 147 148 139 139 142 138 137 135 137 140 135 123 128 129 129 129 126 117 118 118 115 112 109 106 105 101 93 103 102 100 97 94 94 97 97 98 96 84 71 104
279 283 278 273 274 275 284 282 270 293 282 228 223 218 199 194 204 194 220 242 243 241 234 239 232 224 212 202 196 192 187 183 183 184 184 176 169 167 157 145 164 158 159 153 148 143 145 139 139 142 140 136 133 139 145 134 129 128 125 135 132 128 120 122 125 116 114 105 109 107 106 109 105 107 111 114 118 116 112 97 88 78 66 52 20
287 286 285 281 279 275 273 270 269 254 255 249 247 218 208 200 200 197 206 232 230 236 216 221 220 218 216 212 193 190 180 181 178 176 169 160 153 146 153 152 149 149 140 144 146 146 148 140 135 137 136 139 142 143 145 136 137 138 138 139 140 135 134 134 128 125 121 117 106 108 119 126 130 121 123 118 123 110 95 85 77 76 64 49 29
295 277 276 270 266 278 285 254 251 243 228 226 228 229 224 221 214 204 202 210 207 202 192 190 194 192 176 165 177 169 168 170 170 159 153 144 143 146 149 140 138 142 139 127 134 138 138 136 135 137 143 144 146 144 140 139 141 141 137 137 138 128 122 121 123 125 124 119 123 123 131 142 147 126 125 115 104 100 89 85 84 75 62 52 16
286 294 284 293 276 253 238 235 235 240 241 225 230 222 224 226 224 212 214 198 187 171 170 169 162 154 151 156 159 162 160 155 147 138 138 138 139 138 136 136 133 135 137 136 131 139 134 138 144 148 148 148 146 143 131 130 128 133 132 132 127 118 113 114 114 115 119 122 126 122 136 148 157 132 126 115 106 100 98 93 83 70 53 33 17
286 276 295 268 254 262 264 249 244 240 234 227 223 225 220 231 228 218 188 163 167 149 152 146 145 148 151 151 153 148 150 146 145 142 145 143 138 142 144 140 144 141 140 137 141 147 146 144 143 144 144 142 140 139 135 131 133 133 127 116 112 112 114 112 111 110 117 119 123 128 134 144 154 138 125 122 117 106 100 86 75 58 44 26 15
274 268 258 285 277 251 244 245 239 245 240 233 222 227 223 220 229 216 200 192 167 153 150 151 155 157 152 154 150 154 150 145 149 147 141 142 144 143 148 152 152 148 146 142 141 133 136 138 140 141 144 141 136 133 131 131 133 133 127 122 119 118 115 108 105 111 112 114 120 126 130 134 128 123 125 121 113 103 89 77 68 50 33 20 4
270 263 248 246 253 258 248 244 243 239 233 230 218 227 223 207 218 208 192 180 171 152 155 154 156 152 155 157 159 154 157 154 147 147 149 146 144 147 144 136 132 136 138 142 145 144 141 140 141 142 140 139 134 129 129 132 132 133 128 121 126 126 119 112 110 108 112 117 119 117 117 117 114 114 112 106 104 95 91 75 63 45 29 15 6
286 270 254 243 251 246 241 236 235 231 230 223 217 222 240 234 230 205 182 188 174 162 154 149 150 158 159 158 149 137 117 121 129 130 133 134 131 124 122 126 129 131 135 141 139 139 138 133 131 137 137 137 137 140 144 143 136 127 126 128 132 128 126 124 119 115 115 115 113 109 107 105 99 95 92 90 87 90 89 75 50 37 21 12 358
270 268 260 243 248 255 248 237 231 223 223 215 208 208 205 206 207 198 187 183 153 175 166 156 165 170 161 150 143 142 141 139 140 144 143 140 136 136 135 135 138 140 139 139 138 141 140 142 140 138 136 135 132 132 138 135 136 137 134 130 126 128 129 128 127 125 118 114 112 113 107 104 98 88 84 84 84 77 79 73 64 31 13 3 351
259 258 257 253 251 251 257 250 242 225 221 215 214 207 202 209 203 190 191 176 165 167 175 177 174 166 164 155 149 157 150 154 154 146 145 144 143 141 140 139 140 144 145 146 143 141 142 144 144 141 134 127 129 132 140 140 137 136 132 134 134 132 129 128 131 131 131 131 127 121 119 110 99 84 79 79 81 84 81 64 50 32 15 358 345
252 249 241 245 246 249 246 245 244 233 219 213 209 203 200 211 194 192 185 166 174 175 175 182 175 165 165 171 162 155 160 154 149 152 153 150 147 147 146 148 147 149 150 146 147 146 142 140 133 127 121 128 127 142 141 139 138 137 137 128 130 131 133 131 132 131 134 138 139 137 132 126 106 98 102 91 78 248 148 48 36 24 11 0 346
263 263 256 237 232 230 232 242 240 225 216 214 201 194 208 199 189 189 163 172 182 180 178 180 174 174 178 177 165 163 163 162 163 156 154 153 155 150 148 151 156 151 143 150 147 140 136 131 134 131 128 131 130 142 139 140 139 138 135 130 127 130 130 132 133 134 138 142 146 146 146 136 123 127 146 203 207 236 240 5 38 21 5 359 345
259 252 256 259 236 232 229 229 232 228 218 209 195 205 207 187 179 167 175 181 180 188 186 184 177 180 176 171 168 166 166 167 161 158 157 159 157 157 153 149 143 147 150 141 138 138 137 139 141 136 129 129 130 142 141 140 139 137 137 133 128 129 125 126 130 133 135 142 152 158 152 140 137 156 182 221 241 217 109 40 22 8 3 356 349
251 261 251 246 250 259 243 230 225 217 212 189 209 205 169 167 173 179 187 181 188 186 195 188 182 178 170 170 169 170 165 161 161 159 158 159 158 149 151 153 156 158 155 153 150 146 147 142 140 136 129 130 134 143 141 142 142 139 137 133 126 122 119 119 120 125 134 141 149 145 133 128 148 168 208 263 61 44 47 43 16 10 4 354 336
239 233 250 246 247 245 238 243 220 183 192 188 197 172 172 182 170 182 181 188 188 196 199 188 184 176 174 171 166 167 164 159 160 160 161 162 162 161 157 152 146 139 130 131 133 138 143 140 138 138 132 133 142 146 146 146 144 141 139 131 131 127 124 126 126 135 143 144 146 138 124 145 165 178 245 311 30 39 61 73 18 12 1 338 315
245 222 241 224 215 207 223 197 183 185 184 197 170 166 171 161 173 185 180 188 193 205 205 192 184 179 175 170 171 168 166 165 164 165 169 168 161 158 154 149 145 148 148 152 151 148 148 145 145 144 139 138 144 151 151 149 146 144 139 134 132 126 129 135 140 145 150 151 143 139 151 156 186 225 258 341 15 40 51 33 17 20 346 310 302
241 252 241 237 238 239 240 192 197 199 193 155 160 159 161 169 182 177 183 199 205 214 196 180 189 180 176 172 173 171 168 168 168 175 172 165 155 146 158 164 160 157 156 155 146 139 144 150 149 149 151 145 149 154 155 153 151 151 149 145 146 138 136 140 141 150 153 145 144 157 162 181 209 243 278 20 12 43 28 29 27 358 330 333 336
228 228 247 245 239 219 228 188 173 203 182 150 148 151 160 180 177 181 192 206 216 207 179 192 191 173 171 175 176 176 173 172 176 177 171 167 168 166 154 152 153 149 148 144 146 142 138 137 143 142 147 147 148 155 158 157 156 157 155 152 150 144 142 149 151 151 151 149 158 157 180 192 201 247 5 17 23 29 38 39 34 344 333 350 2
219 225 221 223 172 135 132 165 191 210 152 151 149 156 170 174 183 178 202 217 212 199 195 178 161 167 175 176 179 179 179 177 178 172 170 167 152 149 160 154 151 147 144 145 142 146 145 147 146 147 152 154 152 156 162 161 162 162 163 157 151 146 152 155 158 157 157 160 155 166 186 199 193 304 30 30 25 33 87 74 4 5 357 351 355
192 225 139 176 186 183 193 196 199 159 150 152 154 155 178 183 178 187 214 214 196 173 166 171 169 170 176 179 178 181 176 176 169 163 152 144 152 153 148 149 146 142 139 141 143 143 140 141 145 149 147 160 161 155 164 165 166 167 167 165 162 159 153 152 154 158 159 156 170 176 203 201 202 152 112 104 94 58 87 102 44 27 8 354 19
256 191 116 132 134 156 132 126 150 149 152 156 158 169 180 182 183 213 220 179 162 165 163 162 169 174 176 175 175 172 167 162 150 144 147 147 142 144 150 149 146 147 147 144 146 146 146 139 128 145 155 162 168 167 163 170 171 171 172 171 161 165 159 150 146 150 156 168 178 181 188 200 179 152 146 163 134 95 89 98 22 20 17 20 35
140 107 83 135 129 155 169 173 132 139 154 161 161 171 183 184 209 224 164 150 154 155 158 165 168 173 178 177 176 171 167 163 162 162 157 158 157 156 158 154 152 152 152 153 156 154 148 147 142 155 165 170 173 179 175 172 175 174 175 174 167 157 165 166 155 161 171 171 172 185 192 184 165 163 164 148 135 90 90 42 30 27 25 28 31
227 180 176 130 134 131 129 70 112 154 158 168 167 177 186 197 223 165 148 139 146 152 152 160 172 175 174 177 176 174 168 169 165 161 161 158 164 163 161 166 165 161 160 160 161 159 155 159 163 162 173 179 179 179 185 181 178 177 176 173 170 170 167 169 168 156 155 166 174 179 175 169 166 160 162 156 114 82 65 40 38 30 32 28 18
163 158 179 129 142 150 124 104 99 159 176 176 186 176 187 209 222 155 152 153 149 150 155 166 173 172 175 171 166 175 172 172 172 166 166 167 165 164 165 174 167 171 170 168 171 170 172 166 161 172 170 175 179 181 184 186 183 180 177 175 175 173 171 170 159 158 155 166 172 166 164 164 161 154 148 120 69 57 45 47 38 35 31 16 4
72 74 70 107 87 92 116 130 48 10 233 192 204 184 194 224 180 167 159 150 149 150 162 169 168 169 173 162 166 173 173 176 175 182 182 176 173 176 175 172 177 179 179 174 169 173 172 172 177 168 175 167 173 177 182 186 184 182 180 180 177 174 174 171 158 157 166 164 160 162 159 153 144 139 106 107 102 56 42 39 35 28 16 347 338
121 101 110 89 101 97 91 60 287 318 341 290 215 237 221 188 177 175 156 147 148 156 158 161 169 166 158 164 170 171 171 172 182 181 179 173 174 180 175 177 184 180 181 178 173 177 177 182 185 178 169 160 170 180 180 184 183 180 178 177 175 173 172 164 161 162 159 151 155 150 146 146 142 140 122 92 81 47 35 20 18 5 329 302 304
87 88 104 100 105 122 133 156 245 287 326 255 222 222 212 179 174 167 159 148 150 160 164 171 169 160 168 173 177 170 170 178 185 182 180 183 190 189 188 188 187 184 180 186 185 187 188 187 187 167 159 168 181 183 187 185 184 179 175 173 171 170 174 172 163 154 143 132 123 135 128 81 82 70 78 39 37 38 23 19 338 315 287 290 299
108 101 113 136 149 144 166 170 224 261 283 243 245 253 231 188 173 170 163 158 158 153 147 148 153 153 171 176 176 179 184 182 184 193 207 198 188 194 201 213 229 231 216 198 190 195 197 193 181 168 165 169 180 195 204 194 184 177 171 168 174 179 174 178 169 149 125 97 100 101 135 133 126 130 105 93 25 325 304 304 286 281 276 290 308
139 128 128 103 104 143 146 171 297 348 29 354 312 310 303 265 185 169 168 157 151 140 141 157 160 171 175 177 187 188 187 184 186 191 194 226 233 203 213 205 216 235 249 306 244 227 219 193 188 193 183 176 188 204 181 178 182 184 185 179 174 177 176 164 158 151 140 137 145 157 167 164 155 152 168 188 199 205 216 240 261 288 305 288 272
153 111 91 100 93 105 115 98 305 6 13 0 316 317 315 314 251 197 175 163 151 151 157 159 166 188 186 186 185 190 193 191 189 186 193 198 217 224 214 218 212 216 225 244 243 197 181 197 199 186 201 235 31 148 167 176 178 183 182 180 178 179 174 169 160 143 139 156 157 168 170 171 175 167 184 191 193 204 222 205 215 243 267 265 284